| time (UTC) | temp F | wind direction | speed MPH | gust MPH | rain 1hr in | rain 24hr in | rain mn in | humidity % | barometer mb |
| 20260505040821 | 63 | 18 | 2.0 | 5.0 | 0.00 | 0.00 | 0.00 | 59 | 1007.8 |
| 20260505034641 | 63 | 41 | 1.0 | 4.0 | 0.00 | 0.00 | 0.00 | 59 | 1007.8 |
| 20260505033628 | 63 | 55 | 1.0 | 4.0 | 0.00 | 0.00 | 0.00 | 59 | 1007.8 |
| 20260505032651 | 63 | 35 | 1.0 | 6.0 | 0.00 | 0.00 | 0.00 | 59 | 1007.8 |
| 20260505031630 | 64 | 41 | 2.0 | 6.0 | 0.00 | 0.00 | 0.00 | 58 | 1007.9 |
| 20260505030632 | 64 | 39 | 2.0 | 6.0 | 0.00 | 0.00 | 0.00 | 58 | 1008.0 |
| 20260505023350 | 65 | 48 | 2.0 | 6.0 | 0.00 | 0.00 | 0.00 | 57 | 1008.1 |
| 20260505022346 | 65 | 42 | 2.0 | 6.0 | 0.00 | 0.00 | 0.00 | 57 | 1008.2 |
| 20260505021411 | 65 | 48 | 2.0 | 6.0 | 0.00 | 0.00 | 0.00 | 57 | 1008.1 |
| 20260505020416 | 66 | 61 | 2.0 | 10.0 | 0.00 | 0.00 | 0.00 | 56 | 1008.2 |
| 20260505014328 | 66 | 50 | 3.0 | 10.0 | 0.00 | 0.00 | 0.00 | 55 | 1008.3 |
| 20260505013343 | 66 | 32 | 2.0 | 6.0 | 0.00 | 0.00 | 0.00 | 55 | 1008.1 |
| 20260505011222 | 67 | 44 | 2.0 | 7.0 | 0.00 | 0.00 | 0.00 | 55 | 1008.0 |
| 20260505010225 | 67 | 31 | 2.0 | 6.0 | 0.00 | 0.00 | 0.00 | 55 | 1007.8 |
| 20260505005200 | 67 | 50 | 2.0 | 10.0 | 0.00 | 0.00 | 0.00 | 55 | 1007.6 |
| 20260505004225 | 67 | 31 | 3.0 | 10.0 | 0.00 | 0.00 | 0.00 | 54 | 1007.6 |
| 20260505003156 | 67 | 39 | 2.0 | 7.0 | 0.00 | 0.00 | 0.00 | 54 | 1007.5 |
| 20260505002214 | 68 | 34 | 2.0 | 6.0 | 0.00 | 0.00 | 0.00 | 53 | 1007.4 |
| 20260505001231 | 68 | 55 | 2.0 | 7.0 | 0.00 | 0.00 | 0.00 | 53 | 1007.6 |
| 20260505000247 | 68 | 51 | 3.0 | 7.0 | 0.00 | 0.00 | 0.00 | 53 | 1007.5 |
| 20260504235217 | 68 | 49 | 2.0 | 7.0 | 0.00 | 0.00 | 0.00 | 53 | 1007.6 |
| 20260504234144 | 68 | 57 | 2.0 | 9.0 | 0.00 | 0.00 | 0.00 | 53 | 1007.8 |
| 20260504233200 | 69 | 47 | 3.0 | 9.0 | 0.00 | 0.00 | 0.00 | 51 | 1007.4 |
| 20260504232148 | 69 | 30 | 4.0 | 12.0 | 0.00 | 0.00 | 0.00 | 51 | 1007.4 |
| 20260504231207 | 69 | 18 | 4.0 | 15.0 | 0.00 | 0.00 | 0.00 | 51 | 1007.6 |
| 20260504230152 | 69 | 94 | 5.0 | 15.0 | 0.00 | 0.00 | 0.00 | 51 | 1007.7 |
| 20260504225209 | 70 | 93 | 6.0 | 14.0 | 0.00 | 0.00 | 0.00 | 49 | 1007.6 |
| 20260504224220 | 71 | 60 | 5.0 | 13.0 | 0.00 | 0.00 | 0.00 | 50 | 1007.5 |
| 20260504222039 | 71 | 60 | 5.0 | 12.0 | 0.00 | 0.00 | 0.00 | 48 | 1007.5 |
| 20260504221053 | 72 | 27 | 5.0 | 12.0 | 0.00 | 0.00 | 0.00 | 47 | 1007.4 |
| 20260504220052 | 72 | 39 | 3.0 | 8.0 | 0.00 | 0.00 | 0.00 | 48 | 1007.4 |
| 20260504215050 | 72 | 103 | 3.0 | 8.0 | 0.00 | 0.00 | 0.00 | 48 | 1007.4 |
| 20260504214051 | 71 | 101 | 4.0 | 9.0 | 0.00 | 0.00 | 0.00 | 47 | 1007.4 |
| 20260504213027 | 71 | 57 | 3.0 | 12.0 | 0.00 | 0.00 | 0.00 | 49 | 1007.4 |
| 20260504210946 | 71 | 46 | 5.0 | 14.0 | 0.00 | 0.00 | 0.00 | 48 | 1007.4 |
| 20260504205948 | 71 | 108 | 5.0 | 14.0 | 0.00 | 0.00 | 0.00 | 49 | 1007.3 |
| 20260504205013 | 71 | 90 | 4.0 | 13.0 | 0.00 | 0.00 | 0.00 | 47 | 1007.5 |
| 20260504204028 | 72 | 89 | 4.0 | 11.0 | 0.00 | 0.00 | 0.00 | 48 | 1007.4 |
| 20260504203040 | 72 | 102 | 5.0 | 15.0 | 0.00 | 0.00 | 0.00 | 48 | 1007.5 |
| 20260504202103 | 71 | 77 | 4.0 | 15.0 | 0.00 | 0.00 | 0.00 | 47 | 1007.6 |
| 20260504201114 | 72 | 30 | 4.0 | 12.0 | 0.00 | 0.00 | 0.00 | 46 | 1007.6 |
| 20260504200052 | 71 | 30 | 4.0 | 11.0 | 0.00 | 0.00 | 0.00 | 46 | 1007.5 |
| 20260504195058 | 72 | 103 | 5.0 | 17.0 | 0.00 | 0.00 | 0.00 | 47 | 1007.6 |
| 20260504194111 | 71 | 36 | 5.0 | 17.0 | 0.00 | 0.00 | 0.00 | 47 | 1007.7 |
| 20260504193107 | 72 | 66 | 6.0 | 15.0 | 0.00 | 0.00 | 0.00 | 49 | 1007.8 |
| 20260504192040 | 71 | 29 | 4.0 | 11.0 | 0.00 | 0.00 | 0.00 | 48 | 1007.8 |
| 20260504191057 | 71 | 91 | 4.0 | 11.0 | 0.00 | 0.00 | 0.00 | 47 | 1007.9 |
| 20260504190044 | 71 | 33 | 4.0 | 11.0 | 0.00 | 0.00 | 0.00 | 47 | 1008.0 |
| 20260504183931 | 71 | 51 | 3.0 | 13.0 | 0.00 | 0.00 | 0.00 | 48 | 1008.1 |
| 20260504182932 | 70 | 47 | 4.0 | 13.0 | 0.00 | 0.00 | 0.00 | 48 | 1008.4 |
| 20260504181949 | 70 | 35 | 5.0 | 16.0 | 0.00 | 0.00 | 0.00 | 48 | 1008.5 |
| 20260504180951 | 70 | 24 | 5.0 | 16.0 | 0.00 | 0.00 | 0.00 | 47 | 1008.7 |
| 20260504180006 | 70 | 41 | 5.0 | 15.0 | 0.00 | 0.00 | 0.00 | 49 | 1008.7 |
| 20260504175018 | 69 | 31 | 3.0 | 13.0 | 0.00 | 0.00 | 0.00 | 48 | 1008.8 |
| 20260504172823 | 68 | 34 | 4.0 | 12.0 | 0.00 | 0.00 | 0.00 | 47 | 1009.1 |
| 20260504171828 | 68 | 55 | 3.0 | 12.0 | 0.00 | 0.00 | 0.00 | 45 | 1009.1 |
| 20260504170843 | 68 | 45 | 4.0 | 11.0 | 0.00 | 0.00 | 0.00 | 49 | 1009.2 |
| 20260504150729 | 64 | 37 | 6.0 | 15.0 | 0.00 | 0.00 | 0.00 | 48 | 1010.9 |
| 20260504140758 | 61 | 38 | 5.0 | 12.0 | 0.00 | 0.00 | 0.00 | 50 | 1010.9 |
| 20260504130717 | 57 | 54 | 3.0 | 10.0 | 0.00 | 0.00 | 0.00 | 55 | 1011.2 |
| 20260504110633 | 49 | 55 | 3.0 | 8.0 | 0.00 | 0.00 | 0.00 | 60 | 1011.4 |
| 20260504100423 | 50 | 49 | 2.0 | 6.0 | 0.00 | 0.00 | 0.00 | 58 | 1011.3 |
| 20260504081248 | 49 | 39 | 2.0 | 5.0 | 0.00 | 0.00 | 0.00 | 57 | 1012.3 |
| 20260504080247 | 49 | 43 | 1.0 | 4.0 | 0.00 | 0.00 | 0.00 | 57 | 1012.3 |